This demonstration page uses our WeatherBlox Daily Observations layout. Learn more.

Left ArrowRight Arrow

41.86663, -103.66717

Hourly Observations for April 21, 2018

Temp ( °F °C ) Dew Point ( °F °C ) Humidity (%) Winds ( mph kmh ) Pressure ( in mb ) Visibility ( mi km ) Precip ( " mm )
12:53 am 00:53 Cloudy with Light Rain 36 2 N/A N/A ESE 12 19 30.27 1025 4 6 N/A
1:41 am 01:41 Cloudy with Light Snow 36 2 N/A N/A ESE 13 20 30.27 1025 3 5 0.03 0.76
1:53 am 01:53 Cloudy with Light Snow 34 1 N/A N/A ESE 10 17 30.26 1025 3 4 0.03 0.76
1:57 am 01:57 Cloudy with Light Snow 34 1 N/A N/A ESE 8 13 30.30 1026 2 3 0.01 0.25
2:03 am 02:03 Cloudy with Light Snow 34 1 N/A N/A ESE 10 17 30.30 1026 1 2 0.02 0.51
2:11 am 02:11 Cloudy with Light Snow 34 1 N/A N/A E 8 13 30.30 1026 1 1 0.03 0.76
2:17 am 02:17 Cloudy with Light Snow 34 1 N/A N/A E 6 9 30.30 1026 1 2 0.04 1.02
2:42 am 02:42 Cloudy with Light Snow 34 1 N/A N/A ENE 3 6 30.30 1026 3 4 0.05 1.27
2:51 am 02:51 Cloudy with Light Snow 34 1 N/A N/A N N/A 30.30 1026 4 6 0.05 1.27
2:53 am 02:53 Cloudy with Haze 34 1 N/A N/A NE 3 6 30.24 1024 4 6 0.05 1.27
3:53 am 03:53 Cloudy with Light Wintry Mix 34 1 N/A N/A N N/A 30.24 1024 7 11 N/A
4:53 am 04:53 Cloudy 36 2 N/A N/A ENE 6 9 30.24 1024 10 16 0.01 0.25
5:53 am 05:53 Cloudy with Light Snow 34 1 N/A N/A E 6 9 30.24 1024 5 8 0.01 0.25
6:22 am 06:22 Cloudy with Light Snow 34 1 N/A N/A ESE 7 11 30.30 1026 3 4 N/A
6:33 am 06:33 Cloudy with Light Snow 34 1 N/A N/A ESE 7 11 30.30 1026 3 5 N/A
6:53 am 06:53 Cloudy with Haze 34 1 N/A N/A ESE 6 9 30.25 1024 4 6 N/A
7:10 am 07:10 Cloudy with Haze 36 2 N/A N/A ESE 5 7 30.27 1025 4 6 N/A
7:45 am 07:45 Cloudy with Light Snow 34 1 N/A N/A ESE 6 9 30.30 1026 2 3 0.01 0.25
7:53 am 07:53 Cloudy with Light Snow 34 1 N/A N/A ESE 5 7 30.27 1025 1 2 0.01 0.25
8:22 am 08:22 Cloudy with Light Snow 34 1 N/A N/A E 3 6 30.30 1026 2 3 N/A
8:30 am 08:30 Cloudy with Light Snow 34 1 N/A N/A E 5 7 30.30 1026 3 4 N/A
8:38 am 08:38 Cloudy with Light Snow 34 1 N/A N/A ESE 3 6 30.30 1026 2 3 N/A
8:53 am 08:53 Cloudy with Light Snow 36 2 N/A N/A ESE 5 7 30.27 1025 3 5 0.02 0.51
9:53 am 09:53 Cloudy 37 2.8 37 2.8 100 100 SE 6 9 30.27 1025 10 16 N/A
10:53 am 10:53 Cloudy with Light Rain 38 3.3 38 3.3 100 100 SE 6 9 30.26 1025 10 16 N/A
11:23 am 11:23 Cloudy 38 3.3 38 3.3 100 100 SSE 5 7 30.30 1026 10 16 N/A
11:34 am 11:34 Cloudy 38 3.3 38 3.3 100 100 SE 5 7 30.27 1025 10 16 N/A
11:43 am 11:43 Cloudy 38 3.3 38 3.3 100 100 N N/A 30.27 1025 10 16 N/A
11:53 am 11:53 Cloudy with Light Rain 38 3.3 38 3.3 100 100 SE 5 7 30.26 1025 10 16 N/A
12:49 pm 12:49 Cloudy with Light Rain 39 4 37 3 93 93 ESE 6 9 30.24 1024 10 16 0.01 0.25
12:53 pm 12:53 Cloudy with Light Rain 39 3.9 39 3.9 100 100 SE 6 9 30.25 1024 10 16 0.01 0.25
1:06 pm 13:06 Cloudy with Light Rain 39 3.9 39 3.9 100 100 SE 6 9 30.24 1024 10 16 N/A
1:49 pm 13:49 Cloudy 43 6 39 4 87 87 SSE 3 6 30.18 1022 10 16 N/A
1:53 pm 13:53 Cloudy 42 5.6 41 5 96 96 SE 7 11 30.24 1024 10 16 N/A
2:27 pm 14:27 Cloudy 43 6.1 40 4.4 89 89 SSE 6 9 30.21 1023 10 16 N/A
2:53 pm 14:53 Cloudy 43 6.1 39 3.9 86 86 ESE 6 9 30.23 1024 10 16 N/A
3:53 pm 15:53 Cloudy 44 6.7 39 3.9 83 83 ESE 10 17 30.22 1023 10 16 N/A
4:53 pm 16:53 Cloudy 45 7.2 39 3.9 80 80 ESE 10 17 30.19 1022 10 16 N/A
5:39 pm 17:39 Partly Cloudy 46 7.8 38 3.3 73 73 SE 10 17 30.15 1021 10 16 N/A
5:53 pm 17:53 Partly Cloudy 46 7.8 39 3.9 77 77 ESE 7 11 30.19 1022 10 16 N/A
6:05 pm 18:05 Mostly Cloudy 46 7.8 39 3.9 77 77 SE 10 17 30.15 1021 10 16 N/A
6:40 pm 18:40 Partly Cloudy 45 7 37 3 76 76 ESE 10 17 30.18 1022 10 16 N/A
6:53 pm 18:53 Mostly Sunny 45 7.2 38 3.3 77 77 ESE 9 15 30.19 1022 10 16 N/A
7:53 pm 19:53 Clear 41 5 38 3.3 89 89 ESE 9 15 30.21 1023 10 16 N/A
8:53 pm 20:53 Mostly Cloudy 40 4.4 38 3.3 93 93 ESE 13 20 30.22 1024 10 16 N/A
9:41 pm 21:41 Mostly Cloudy 40 4.4 38 3.3 93 93 SE 10 17 30.21 1023 10 16 N/A
9:53 pm 21:53 Cloudy 40 4.4 38 3.3 93 93 SE 8 13 30.22 1023 10 16 N/A
10:08 pm 22:08 Partly Cloudy 39 4 37 3 93 93 SE 7 11 30.21 1023 10 16 N/A
10:53 pm 22:53 Clear 35 1.7 35 1.7 100 100 E 7 11 30.22 1023 10 16 N/A
11:53 pm 23:53 Clear 35 1.7 35 1.7 100 100 ESE 9 15 30.22 1023 10 16 N/A

Powered by AerisWeather